Showing default

FLOCK 4BE 4, 60482

Orbit data source: Space-Track

FLOCK 4BE 4, 60482 is a payload satellite owned by Planet (US) in SSO that was launched on Fri, 16 Aug 2024 UTC via an FALCON 9 launch vehicle from the Air Force Western Test Range (AFWTR). Payload-class satellites include a variety of spacecraft equipped with specific instruments for various scientific and technological missions. These include communications satellites like Starlink; space stations such as the ISS; scientific satellites like the Hubble; Earth observation satellites from companies like Planet Labs, Umbra, and HawkEye 360; GPS; miniature CubeSats for education and research; and military/defense satellites.

Not visible in the next 10 days
Identifier
60482, 2024-149Q
Orbit
SSO
Country
Flag of USUS
Related business
Manufacturer
Planet
Mission
Non-operational Commercial Imaging
Bus & Motor
CUBESAT 3U, Unknown motor
Mass
5.7 kg wet, 5.7 kg dry
Launch date (UTC)
2024-08-16 (1 year ago)
Launch vehicle
FALCON 9
Launch site
Air Force Western Test Range (AFWTR)
Object type
Payload
Rocket body
Debris
Shape & HBR
Box + 2 Pan, 1.0 m
Radar Cross Section
0.072 m², Medium (>0.1 m² and < 1m²)

Expand to show TLE details & history
Last TLE update: 7 hours ago

TLE from 7 hours ago
0 FLOCK 4BE 4
1 60482U 24149Q   25304.23140648  .00475166  00000-0  24581-2 0  9993
2 60482  97.3939  33.8694 0009276 283.5637  76.4597 15.79773845 67910
Epoch: 2025-10-31T05:33Z
TLE epoch observation values (Epoch: 2025-10-31T05:33:13.519Z)
Latitude
-0.00003°
Longitude
-89.21573°
Altitude
332.8 km
Speed
7.71 km/s
True Right ascension
02h 15m 28s
True Declination
0° 00' 00"
Sunlit
Object was in full shadow at epoch
Visualization orbit readout
Latitude
Unknown
Longitude
Unknown
Altitude
Unknown
Speed
Unknown
Apparent Right ascension
Unknown
Apparent Declination
Unknown
Sunlit
N/A
Visualization observer readout
Local Sidereal Time
08:03:31
Azimuth
Unknown
Elevation
Unknown
Doppler factor
Unknown
Orbital elements
Apogee altitude
334.188 km
Perigee altitude
321.746 km
Semi-major axis
6,706.104 km
Eccentricity
0.00093
Inclination
97.3939°
RAAN
33.8694°
Arg. of periapsis
283.5637°
True anomaly
76.56307°
Mean anomaly
76.4597°
Eccentric anomaly
76.51138°
Mean motion
3.95219 °/min
Orbital period
91.09 mins
BSTAR
0.0024581
Loading maneuver chart data...
Computing Atmospheric mass density...
Loading historical data...
Loading historical data...
Loading historical data...
Loading historical data...
Loading historical data...
Loading historical data...
Loading historical data...

Documentation

Showing up to 5 results
|